Flag for Brazil Weather past 2 weeks in Cuiabá, Mato Grosso, Brazil

Now
99 °F

Sunny.


Feels Like: 98 °F
Forecast: N/A
Wind: 6 mph from South

Location: Cuiaba Aeroporto

Current Time: Aug 29, 2014 at 5:02:25 PM

Latest Report: Aug 29, 2014 at 3:00 PM


Visibility: 10 mi

Pressure: 29.86 "Hg

Humidity: 25%

Dew point: 57 °F

Location of CuiabáLocation

Historic Weather in Cuiabá — Graph

°F

Cuiabá temperature yesterday

Maximum temperature yesterday: 91 °F (at 3:00 PM)
Minimum temperature yesterday: 68 °F (at 2:00 AM)
Average temperature yesterday: 78 °F

Past Weeks' High & Low Weather Summary

 TemperatureHumidityPressure
High102 °F (Aug 22, 2:00 PM)100% (Aug 15, 5:00 AM)30.12 "Hg (Aug 15, 5:00 AM)
Low61 °F (Aug 15, 5:00 AM)16% (Aug 22, 2:00 PM)29.74 "Hg (Aug 24, 3:00 PM)
Average82 °F50%29.96 "Hg
* Reported Aug 14 2:00 PM — Aug 29 2:00 PM, Cuiabá, Weather by CustomWeather, © 2014

Note: Actual official high and low records may vary slightly from our data, if they occured in-between our weather recording intervals... More about our weather records

Advertising

Cuiabá weather history for previous 24 hours

 ConditionsComfort  
Time TempWeatherWind HumidityBarometerVisibility
2:00 PM
Aug 29
99 °FSunny.5 mph25%29.89 "Hg10 mi
1:00 PM97 °FSunny.5 mph28%29.92 "Hg10 mi
12:00 PM93 °FSunny.5 mph32%29.98 "Hg10 mi
11:00 AM90 °FSunny.2 mph38%30.01 "Hg10 mi
10:00 AM86 °FSunny.5 mph46%30.01 "Hg10 mi
9:00 AM82 °FSunny.6 mph51%30.01 "Hg10 mi
8:00 AM77 °FSunny.3 mph65%30.01 "Hg10 mi
7:00 AM75 °FSunny.3 mph69%29.98 "Hg10 mi
6:00 AM73 °FSunny.No wind69%29.95 "Hg10 mi
5:00 AM72 °FClear.2 mph73%29.95 "Hg10 mi
4:00 AM72 °FClear.2 mph73%29.92 "Hg10 mi
3:00 AM73 °FClear.3 mph74%29.92 "Hg10 mi
2:00 AM73 °FClear.2 mph74%29.95 "Hg10 mi
1:00 AM77 °FClear.2 mph61%29.95 "Hg10 mi
12:00 AM73 °FClear.No wind69%29.95 "Hg10 mi
11:00 PM
Aug 28
73 °FClear.2 mph69%29.98 "Hg10 mi
10:00 PM79 °FClear.5 mph58%29.95 "Hg10 mi
9:00 PM81 °FClear.5 mph51%29.95 "Hg10 mi
8:00 PM79 °FClear.2 mph54%29.95 "Hg10 mi
7:00 PM81 °FClear.5 mph51%29.92 "Hg10 mi
6:00 PM84 °FClear.5 mph43%29.89 "Hg10 mi
5:00 PM90 °FSunny.8 mph33%29.89 "Hg10 mi
Weather by CustomWeather, © 2014

See weather overviewHow to use our weather pages